When you browse on this site, cookies collect data to enhance your experience and personalize the content and advertising you see.
Visit our Privacy Policy to learn more. By continuing to use the site, you agree to this use of cookies and data.
  • In United Kingdom
  • List of Countries
  • For 7 days
  • Water Temperature
  • Satellite Maps
  • Weather Map
  • Weather Widgets
  • user-avatar
    Login

    Hourly Weather Daru

    Today, 26 April, Friday

    Time Temperature Precipitation Wind Pressure Humidity
    00:00 +29°C° 0.1 mm 5 mps 755 mmHg 90%
    01:00 +29°C° 0.1 mm 5 mps 755 mmHg 90%
    02:00 +29°C° 0.2 mm 5 mps 755 mmHg 90%
    03:00 +29°C° 0.2 mm 5 mps 754 mmHg 91%
    04:00 +29°C° 0 mm 5 mps 754 mmHg 91%
    05:00 +28°C° 0.8 mm 4 mps 754 mmHg 92%
    06:00 +28°C° 0.8 mm 4 mps 755 mmHg 92%
    07:00 +28°C° 0.8 mm 4 mps 755 mmHg 92%
    08:00 +29°C° 0.2 mm 4 mps 755 mmHg 89%
    09:00 +30°C° 0.2 mm 3 mps 755 mmHg 86%
    10:00 +32°C° 0 mm 4 mps 756 mmHg 82%
    11:00 +32°C° 0.2 mm 4 mps 755 mmHg 80%
    12:00 +33°C° 0.2 mm 4 mps 755 mmHg 78%
    13:00 +33°C° 0.2 mm 4 mps 754 mmHg 75%
    14:00 +33°C° 0 mm 4 mps 754 mmHg 76%
    15:00 +33°C° 0 mm 4 mps 754 mmHg 77%
    16:00 +32°C° 0 mm 4 mps 753 mmHg 79%
    17:00 +30°C° 0 mm 4 mps 753 mmHg 82%
    18:00 +30°C° 0 mm 4 mps 753 mmHg 85%
    19:00 +29°C° 0 mm 5 mps 754 mmHg 87%
    20:00 +29°C° 0.1 mm 5 mps 754 mmHg 88%
    21:00 +29°C° 0.1 mm 5 mps 754 mmHg 88%
    22:00 +29°C° 0.1 mm 5 mps 755 mmHg 88%
    23:00 +29°C° 0.1 mm 5 mps 755 mmHg 89%

    Tomorrow, 27 April, Saturday

    Time Temperature Precipitation Wind Pressure Humidity
    00:00 +29°C° 0.1 mm 5 mps 755 mmHg 89%
    01:00 +29°C° 0.1 mm 5 mps 755 mmHg 90%
    02:00 +29°C° 0.4 mm 5 mps 755 mmHg 90%
    03:00 +29°C° 0.4 mm 5 mps 754 mmHg 91%
    04:00 +29°C° 0.4 mm 5 mps 754 mmHg 92%
    05:00 +29°C° 0.6 mm 4 mps 755 mmHg 92%
    06:00 +29°C° 0.6 mm 4 mps 755 mmHg 93%
    07:00 +28°C° 0.6 mm 4 mps 755 mmHg 93%
    08:00 +29°C° 0.4 mm 4 mps 756 mmHg 91%
    09:00 +29°C° 0.4 mm 3 mps 756 mmHg 90%
    10:00 +30°C° 0.4 mm 3 mps 756 mmHg 89%
    11:00 +30°C° 0.2 mm 3 mps 756 mmHg 87%
    12:00 +30°C° 0.2 mm 3 mps 756 mmHg 86%
    13:00 +31°C° 0.2 mm 3 mps 755 mmHg 84%
    14:00 +32°C° 0.2 mm 4 mps 755 mmHg 83%
    15:00 +32°C° 0.2 mm 4 mps 754 mmHg 82%
    16:00 +32°C° 0.2 mm 4 mps 754 mmHg 81%
    17:00 +32°C° 0 mm 4 mps 754 mmHg 83%
    18:00 +30°C° 0 mm 5 mps 754 mmHg 85%
    19:00 +29°C° 0 mm 5 mps 754 mmHg 87%
    20:00 +29°C° 0.1 mm 5 mps 755 mmHg 87%
    21:00 +29°C° 0.1 mm 5 mps 755 mmHg 87%
    22:00 +29°C° 0.1 mm 5 mps 756 mmHg 87%
    23:00 +29°C° 1 mm 5 mps 756 mmHg 88%

    Day after tomorrow, 28 April, Sunday

    Time Temperature Precipitation Wind Pressure Humidity
    00:00 +29°C° 1 mm 5 mps 756 mmHg 90%
    01:00 +28°C° 1 mm 5 mps 755 mmHg 91%
    02:00 +28°C° 2.2 mm 5 mps 755 mmHg 92%
    03:00 +28°C° 2.2 mm 5 mps 755 mmHg 92%
    04:00 +28°C° 2.2 mm 5 mps 755 mmHg 92%
    05:00 +28°C° 3.4 mm 6 mps 755 mmHg 92%
    06:00 +28°C° 3.4 mm 6 mps 755 mmHg 92%
    07:00 +28°C° 3.4 mm 6 mps 756 mmHg 92%
    08:00 +28°C° 3.7 mm 6 mps 756 mmHg 92%
    09:00 +28°C° 3.7 mm 6 mps 757 mmHg 92%
    10:00 +28°C° 3.7 mm 6 mps 757 mmHg 92%
    11:00 +29°C° 2.1 mm 7 mps 757 mmHg 90%
    12:00 +29°C° 2.1 mm 7 mps 756 mmHg 89%
    13:00 +30°C° 2.1 mm 7 mps 756 mmHg 88%
    14:00 +30°C° 0.9 mm 7 mps 755 mmHg 88%
    15:00 +30°C° 0.9 mm 7 mps 755 mmHg 88%
    16:00 +29°C° 0.9 mm 7 mps 754 mmHg 88%
    17:00 +29°C° 0.1 mm 7 mps 754 mmHg 88%
    18:00 +29°C° 0.1 mm 7 mps 755 mmHg 87%
    19:00 +29°C° 0.1 mm 7 mps 755 mmHg 87%
    20:00 +29°C° 0.1 mm 7 mps 756 mmHg 86%
    21:00 +29°C° 0.1 mm 7 mps 756 mmHg 85%
    22:00 +29°C° 0.1 mm 7 mps 756 mmHg 85%
    23:00 +29°C° 0.1 mm 7 mps 756 mmHg 85%

    29 April, Monday

    Time Temperature Precipitation Wind Pressure Humidity
    00:00 +29°C° 0.1 mm 7 mps 756 mmHg 85%
    01:00 +29°C° 0.1 mm 7 mps 756 mmHg 85%
    02:00 +29°C° 0.2 mm 7 mps 755 mmHg 85%
    03:00 +29°C° 0.2 mm 7 mps 755 mmHg 86%
    04:00 +29°C° 0.2 mm 7 mps 754 mmHg 86%
    05:00 +29°C° 0.2 mm 7 mps 755 mmHg 86%
    06:00 +29°C° 0.2 mm 7 mps 755 mmHg 87%
    07:00 +28°C° 0.2 mm 7 mps 756 mmHg 87%
    08:00 +29°C° 0.2 mm 7 mps 756 mmHg 83%
    09:00 +30°C° 0.2 mm 7 mps 756 mmHg 80%
    10:00 +32°C° 0.2 mm 8 mps 756 mmHg 77%
    11:00 +32°C° 0.2 mm 7 mps 756 mmHg 75%
    12:00 +33°C° 0.2 mm 7 mps 755 mmHg 72%
    13:00 +33°C° 0.2 mm 7 mps 755 mmHg 70%
    14:00 +33°C° 0 mm 7 mps 754 mmHg 70%
    15:00 +33°C° 0 mm 7 mps 754 mmHg 70%
    16:00 +33°C° 0 mm 7 mps 753 mmHg 71%
    17:00 +32°C° 0.1 mm 7 mps 754 mmHg 75%
    18:00 +30°C° 0.1 mm 7 mps 754 mmHg 79%
    19:00 +29°C° 0.1 mm 7 mps 755 mmHg 84%
    20:00 +29°C° 0.1 mm 7 mps 755 mmHg 84%
    21:00 +29°C° 0.1 mm 7 mps 756 mmHg 84%
    22:00 +29°C° 0.1 mm 7 mps 756 mmHg 85%
    23:00 +29°C° 0.4 mm 7 mps 756 mmHg 86%

    30 April, Tuesday

    Time Temperature Precipitation Wind Pressure Humidity
    00:00 +29°C° 0.4 mm 7 mps 755 mmHg 88%
    01:00 +28°C° 0.4 mm 7 mps 755 mmHg 89%
    02:00 +28°C° 0.8 mm 6 mps 755 mmHg 90%
    03:00 +28°C° 0.8 mm 6 mps 754 mmHg 90%
    04:00 +28°C° 0.8 mm 6 mps 754 mmHg 90%
    05:00 +28°C° 0.2 mm 6 mps 754 mmHg 90%
    06:00 +28°C° 0.2 mm 6 mps 755 mmHg 89%
    07:00 +29°C° 0.2 mm 6 mps 755 mmHg 89%
    08:00 +29°C° 0 mm 6 mps 755 mmHg 85%
    09:00 +30°C° 0 mm 5 mps 756 mmHg 80%
    10:00 +32°C° 0 mm 5 mps 756 mmHg 76%
    11:00 +32°C° 0.1 mm 5 mps 755 mmHg 75%
    12:00 +33°C° 0.1 mm 5 mps 755 mmHg 74%
    13:00 +33°C° 0.1 mm 5 mps 754 mmHg 72%
    14:00 +32°C° 0.1 mm 5 mps 753 mmHg 75%
    15:00 +32°C° 0.1 mm 5 mps 753 mmHg 78%
    16:00 +30°C° 0.1 mm 5 mps 753 mmHg 82%
    17:00 +30°C° 0.1 mm 5 mps 753 mmHg 83%
    18:00 +30°C° 0.1 mm 5 mps 753 mmHg 84%
    19:00 +29°C° 0.1 mm 5 mps 754 mmHg 86%
    20:00 +29°C° 0.1 mm 5 mps 754 mmHg 86%
    21:00 +29°C° 0.1 mm 5 mps 755 mmHg 86%
    22:00 +29°C° 0.1 mm 5 mps 755 mmHg 87%
    23:00 +29°C° 0.3 mm 5 mps 755 mmHg 87%

    1 May, Wednesday

    Time Temperature Precipitation Wind Pressure Humidity
    00:00 +29°C° 0.3 mm 5 mps 755 mmHg 87%
    01:00 +29°C° 0.3 mm 5 mps 754 mmHg 87%
    02:00 +29°C° 1.9 mm 5 mps 754 mmHg 89%
    03:00 +28°C° 1.9 mm 4 mps 754 mmHg 90%
    04:00 +28°C° 1.9 mm 4 mps 754 mmHg 92%
    05:00 +28°C° 0.6 mm 4 mps 754 mmHg 92%
    06:00 +28°C° 0.6 mm 4 mps 755 mmHg 92%
    07:00 +28°C° 0.6 mm 3 mps 755 mmHg 92%
    08:00 +29°C° 0.1 mm 4 mps 756 mmHg 90%
    09:00 +29°C° 0.1 mm 4 mps 756 mmHg 88%
    10:00 +30°C° 0.1 mm 4 mps 756 mmHg 85%
    11:00 +30°C° 0.1 mm 3 mps 755 mmHg 85%
    12:00 +30°C° 0.1 mm 3 mps 755 mmHg 84%
    13:00 +30°C° 0.1 mm 2 mps 754 mmHg 83%
    14:00 +30°C° 0.1 mm 2 mps 754 mmHg 84%
    15:00 +30°C° 0.1 mm 2 mps 753 mmHg 85%
    16:00 +29°C° 0.1 mm 1 mps 753 mmHg 86%
    17:00 +29°C° 0 mm 1 mps 753 mmHg 87%
    18:00 +29°C° 0 mm 1 mps 754 mmHg 89%
    19:00 +28°C° 0 mm 1 mps 754 mmHg 90%
    20:00 +28°C° 0.9 mm 1 mps 755 mmHg 90%
    21:00 +28°C° 0.9 mm 1 mps 755 mmHg 91%
    22:00 +28°C° 0.9 mm 1 mps 756 mmHg 92%
    23:00 +28°C° 0.5 mm 2 mps 755 mmHg 91%
    Show more